This is the latest recevied weather packets stored in our database for station/object 4S6DRJ-13. If no packets are shown the sender has not sent any weather packets the latest 10 day(s).
| Time | Temp. | Humidity | Pressure | Rain* | Wind** | Luminosity | Snow |
|---|---|---|---|---|---|---|---|
| 1787863413 | 27.78° C | 87% | 1008.8 hPa | 0 mm | 0.45 m/s, 230° | 0 W/m² | - |
| 1787863352 | 27.78° C | 87% | 1008.8 hPa | 0 mm | 0.45 m/s, 213° | 0 W/m² | - |
| 1787863292 | 27.78° C | 87% | 1008.8 hPa | 0 mm | 0 m/s | 0 W/m² | - |
| 1787863230 | 27.78° C | 87% | 1008.9 hPa | 0 mm | 0.45 m/s, 234° | 0 W/m² | - |
| 1787863169 | 27.78° C | 87% | 1008.8 hPa | 0 mm | 0.45 m/s, 233° | 0 W/m² | - |
| 1787863109 | 27.78° C | 87% | 1009 hPa | 0 mm | 1.34 m/s, 234° | 0 W/m² | - |
| 1787863047 | 27.78° C | 87% | 1009.1 hPa | 0 mm | 0.45 m/s, 218° | 0 W/m² | - |
| 1787862986 | 27.78° C | 87% | 1008.9 hPa | 0 mm | 1.34 m/s, 243° | 0 W/m² | - |
| 1787862925 | 27.78° C | 87% | 1009 hPa | 0 mm | 0.89 m/s, 249° | 0 W/m² | - |
| 1787862864 | 27.78° C | 87% | 1009 hPa | 0 mm | 0.89 m/s, 149° | 0 W/m² | - |
| 1787862803 | 27.78° C | 87% | 1009 hPa | 0 mm | 1.34 m/s, 225° | 0 W/m² | - |
| 1787862748 | 27.78° C | 87% | 1009 hPa | 0 mm | 1.34 m/s, 248° | 0 W/m² | - |
| 1787862681 | 27.78° C | 87% | 1009.1 hPa | 0 mm | 0 m/s | 0 W/m² | - |
| 1787862620 | 27.78° C | 87% | 1008.9 hPa | 0 mm | 0 m/s | 0 W/m² | - |
| 1787862559 | 27.78° C | 87% | 1009.1 hPa | 0 mm | 1.34 m/s, 199° | 0 W/m² | - |
| 1787862499 | 27.78° C | 88% | 1009.3 hPa | 0 mm | 1.34 m/s, 248° | 0 W/m² | - |
| 1787862436 | 27.78° C | 88% | 1009.4 hPa | 0 mm | 0.89 m/s, 240° | 0 W/m² | - |
| 1787862376 | 27.78° C | 88% | 1009.5 hPa | 0 mm | 0 m/s | 0 W/m² | - |
| 1787862314 | 27.78° C | 88% | 1009.3 hPa | 0 mm | 0.89 m/s, 235° | 0 W/m² | - |
| 1787862253 | 27.78° C | 88% | 1009.3 hPa | 0 mm | 0.89 m/s, 205° | 0 W/m² | - |
| 1787862192 | 27.78° C | 88% | 1009.3 hPa | 0 mm | 1.34 m/s, 263° | 0 W/m² | - |
| 1787862131 | 27.78° C | 88% | 1009.3 hPa | 0 mm | 1.79 m/s, 230° | 0 W/m² | - |
| 1787862072 | 27.78° C | 88% | 1009.3 hPa | 0 mm | 1.79 m/s, 275° | 0 W/m² | - |
| 1787862011 | 27.22° C | 88% | 1009.2 hPa | 0 mm | 0.89 m/s, 314° | 0 W/m² | - |
| 1787861950 | 27.22° C | 89% | 1009.4 hPa | 0 mm | 0 m/s | 0 W/m² | - |
* Rain latest hour (hover to see other rain measurements)
** Current wind speed in m/s (hover to see current wind gust speed)